Home > Weather > Horn > Past weeks

Flag for Austria Past Weather in Horn, Lower Austria, Austria — Yesterday and Last 2 Weeks

Now
68 °F

Mild.


Feels Like: 68 °F
Forecast: 53 / 82 °F
Wind: 2 mph from North

Location: Retz

Current Time: Jun 29, 2016 at 12:41:46 AM

Latest Report: Jun 28, 2016 at 11:00 PM


Visibility: N/A

Pressure: 29.99 "Hg

Humidity: 60%

Dew Point: 54 °F

Location of HornLocation

Past Weather in Horn — Graph

°F

Horn Temperature Yesterday

Maximum temperature yesterday: 78 °F (at 5:00 PM)
Minimum temperature yesterday: 56 °F (at 5:00 AM)
Average temperature yesterday: 67 °F

High & Low Weather Summary for the Past Weeks

 TemperatureHumidityPressure
High89 °F (Jun 25, 3:00 PM)98% (Jun 20, 11:00 PM)30.27 "Hg (Jun 20, 11:00 PM)
Low54 °F (Jun 14, 5:00 AM)36% (Jun 18, 3:00 PM)29.44 "Hg (Jun 17, 4:00 AM)
Average68 °F69%29.94 "Hg
* Reported Jun 13 11:00 PM — Jun 28 11:00 PM, Horn, Weather by CustomWeather, © 2016

Note: Actual official high and low records may vary slightly from our data, if they occured in-between our weather recording intervals... More about our weather records

Advertising

Horn Weather History for the Previous 24 Hours

Scroll right to see more
 ConditionsComfort  
Time TempWeatherWind HumidityBarometerVisibility
11:00 PM
Tue, Jun 28
68 °FMild.2 mph60%29.99 "HgN/A
10:00 PM68 °FMild.1 mph59%29.99 "HgN/A
9:00 PM71 °FMild.2 mph53%29.97 "HgN/A
8:00 PM76 °FPassing clouds.1 mph50%29.96 "Hg22 mi
7:00 PM77 °FMild.No wind44%29.97 "HgN/A
6:00 PM76 °FMild.3 mph45%29.97 "HgN/A
5:00 PM78 °FPleasantly warm.3 mph39%29.97 "HgN/A
4:00 PM77 °FWarm.5 mph42%29.98 "HgN/A
3:00 PM76 °FMild.3 mph43%29.99 "HgN/A
2:00 PM76 °FScattered clouds.3 mph44%30.01 "Hg22 mi
1:00 PM73 °FMild.6 mph46%30.03 "HgN/A
12:00 PM73 °FMild.3 mph48%30.04 "HgN/A
11:00 AM70 °FMild.2 mph51%30.05 "HgN/A
10:00 AM68 °FMild.3 mph57%30.06 "HgN/A
9:00 AM65 °FMild.2 mph66%30.07 "HgN/A
8:00 AM61 °FPassing clouds.7 mph71%30.06 "Hg16 mi
7:00 AM58 °FPassing clouds.8 mph73%30.08 "Hg14 mi
6:00 AM56 °FCool.9 mph77%30.08 "HgN/A
5:00 AM56 °FCool.8 mph79%30.07 "HgN/A
4:00 AM56 °FCool.8 mph80%30.07 "HgN/A
3:00 AM57 °FCool.8 mph83%30.07 "HgN/A
2:00 AM59 °FCool.7 mph76%30.07 "HgN/A
1:00 AM60 °FCool.7 mph75%30.08 "HgN/A
12:00 AM59 °FCool.5 mph77%30.08 "HgN/A
Weather by CustomWeather, © 2016

See weather overviewHow to use our weather pages